(524834) = 2003 YL179

Discovered at Mauna Kea on 2003-12-16 by Mauna Kea.

Orbit

Orbit type: Distant object
Critical list numbered object.

Note: WebGL enabled browser required.

epoch2022-01-21.0
epoch JD2459600.5
perihelion date1962-11-22.53587
perihelion JD2437991.03587
argument of perihelion (°)105.90798
ascending node (°)262.14872
inclination (°)2.53013
eccentricity0.0033852
perihelion distance (AU)38.6090315
Tisserand w.r.t. Jupiter5.6
ΔV w.r.t. Earth (km/sec)12.7
semimajor axis (AU)38.7401747
mean anomaly (°)88.32944
mean daily motion (°/day)0.00408750
aphelion distance (AU)38.871
period (years)241
P-vector [x]0.98920114
P-vector [y]0.11181797
P-vector [z]0.09475148
Q-vector [x]-0.13988819
Q-vector [y]0.91320592
Q-vector [z]0.38273520
absolute magnitude7.36
phase slope0.15
uncertainty4
referenceMPO 701392
observations used33
oppositions6
arc length (days)5533
first opposition used2003
last opposition used2019
residual rms (arc-secs)0.25
perturbers coarse indicatorM-v
perturbers precise indicator003Ek
first observation date used2003-12-16.0
last observation date used2019-02-08.0
computer namePan
Minimum Orbit Intersection Distances (in AU)
for orbit epoch: 2458600.5, reference: MPO461440
Mercury38.0336
Venus37.7698
Earth37.48
Mars36.9602
Jupiter33.1225
Saturn28.4304
Uranus18.5873
Neptune8.27037

Observations

33 total observations over interval: 2003 12 16.32309 – 2019 02 08.281400
These data are available for download (format description).

Date (UT) J2000 RA J2000 Dec Magn Location Ref
2003 12 16.32309 04 30 23.83 +22 24 22.0 23.2 g 568 – Maunakea MPS 169907
2003 12 16.34956 04 30 23.69 +22 24 21.9 22.8 g 568 – Maunakea MPS 169907
2003 12 16.37586 04 30 23.54 +22 24 21.6 23.3 g 568 – Maunakea MPS 169907
2003 12 17.39487 04 30 17.94 +22 24 08.5   568 – Maunakea MPS 169907
2003 12 21.194225 04 29 57.57 +22 23 21.6 22.8 V 645 – Apache Point-Sloan Digital Sky Survey MPS 708314
2003 12 21.195058 04 29 57.56 +22 23 21.5 22.5 V 645 – Apache Point-Sloan Digital Sky Survey MPS 708314
2003 12 21.197546 04 29 57.54 +22 23 21.5 23.4 V 645 – Apache Point-Sloan Digital Sky Survey MPS 708314
2004 12 11.37032 04 37 23.58 +22 34 43.8 23.3 r 568 – Maunakea MPS 169907
2004 12 11.39908 04 37 23.40 +22 34 43.5 23.1 r 568 – Maunakea MPS 169907
2004 12 11.42862 04 37 23.23 +22 34 43.1 23.0 r 568 – Maunakea MPS 169907
2004 12 12.29368 04 37 18.36 +22 34 32.8 23.2 r 568 – Maunakea MPS 169907
2005 10 04.40775 04 49 13.78 +22 52 41.0 23.0 R 675 – Palomar Mountain MPS 169907
2005 10 04.46068 04 49 13.67 +22 52 40.9 23.0 R 675 – Palomar Mountain MPS 169907
2005 10 04.50184 04 49 13.58 +22 52 40.8 22.9 R 675 – Palomar Mountain MPS 169907
2005 11 04.48081 04 47 23.87 +22 49 29.2 23 R 695 – Kitt Peak MPS 169907
2005 11 04.51440 04 47 23.71 +22 49 28.8 23 R 695 – Kitt Peak MPS 169907
2006 09 20.57384 04 56 03.21 +22 59 39.1 23.7 R 568 – Maunakea MPS 212424
2006 09 20.60657 04 56 03.20 +22 59 39.0 23.7 R 568 – Maunakea MPS 212424
2006 10 28.434769 04 54 32.64 +22 57 14.0 23.2 V 645 – Apache Point-Sloan Digital Sky Survey MPS 708314
2006 10 28.435185 04 54 32.64 +22 57 14.0   645 – Apache Point-Sloan Digital Sky Survey MPS 708314
2006 10 28.435602 04 54 32.64 +22 57 14.0   645 – Apache Point-Sloan Digital Sky Survey MPS 708314
2006 10 28.436007 04 54 32.63 +22 57 14.0   645 – Apache Point-Sloan Digital Sky Survey MPS 708314
2006 10 28.438090 04 54 32.62 +22 57 14.0   645 – Apache Point-Sloan Digital Sky Survey MPS 708314
2006 10 28.438495 04 54 32.62 +22 57 14.0   645 – Apache Point-Sloan Digital Sky Survey MPS 708314
2008 09 25.71699 05 09 02.31 +23 09 26.2 25.0 R 250 – Hubble Space Telescope MPS 283727
2008 09 25.72324 05 09 02.31 +23 09 26.2   250 – Hubble Space Telescope MPS 283727
2008 09 25.73018 05 09 02.30 +23 09 26.2   250 – Hubble Space Telescope MPS 283727
2008 09 25.73643 05 09 02.30 +23 09 26.2   250 – Hubble Space Telescope MPS 283727
2018 11 14.369410 06 12 56.22 +22 57 51.2 23.4 G 705 – Apache Point MPS 940995
2018 11 14.434800 06 12 55.94 +22 57 51.3 23.4 G 705 – Apache Point MPS 940995
2018 11 14.488460 06 12 55.71 +22 57 51.2 22.4 G 705 – Apache Point MPS 940995
2019 02 08.219820 06 05 34.790 +22 58 35.74 24.1 G G37 – Lowell Discovery Telescope MPS 974153
2019 02 08.281400 06 05 34.507 +22 58 36.00   G37 – Lowell Discovery Telescope MPS 974153